Torna al catalogo

STARLINK-38262

AttivoComunicazioniSSO
NORAD 100391·PAYLOAD·🇺🇸 United States

Lanciato Aug 19, 2026 da Vandenberg Space Force Base

Loading…

Prossimi Passaggi (prossime 24 ore)

TLE

AggiornatoSource: Space-Track

Epoca: Sep 14, 2026, 20:40 UTC

1 A0391U 26190W   26257.86171622  .00224805  00000-0  14666-2 0  9992
2 A0391  97.2828 111.8734 0002125  87.3725 272.7784 15.75222544  5456

Traccia STARLINK-38262 in tempo reale con AllMySat

Download on the App Store